Location: Zagreb
(45.8000°N, 16.0000°E)
Time: 11:19:08
(UTC+01:00)

Vanguard 1 Rocket - Pass Details

Date: 10 October 2020
Orbit: 656 x 4221 km, 34.3° (Epoch: 28 October)

Event Time Altitude Azimuth Distance (km) Brightness Sun altitude
Rises 23:22:04 0° 271° (W) 6,481 12.0 -47.5°
Reaches altitude 10° 23:28:23 10° 254° (WSW) 6,089 11.6 -48.1°
Maximum altitude 23:39:11 17° 221° (SW) 6,261 11.4 -48.9°
Enters shadow 23:39:49 17° 220° (SW) 6,298 11.4 -49.0°
Drops below altitude 10° 23:52:13 10° 190° (S) 7,373 - -49.8°
Sets 00:01:49 0° 174° (S) 8,421 - -50.3°
